Location: Aalen
(48.8330°N, 10.1000°E)
Time: 16:02:42
(UTC+01:00)

N. Korean satellite - Visible Passes

Search period start: 04 December 2022 00:00
Search period end: 14 December 2022 00:00
Orbit: 421 x 453 km, 97.3° (Epoch: 03 December)

Date Brightness Start Highest point End Pass type
(mag) Time Alt. Az. Time Alt. Az. Time Alt. Az.
04 Dec 10.0 04:31:37 10° E 04:31:58 10° E 04:32:19 10° E visible
04 Dec 6.3 06:01:29 10° N 06:04:52 61° WNW 06:08:13 10° SSW visible
05 Dec 7.7 05:22:42 10° NNE 05:25:58 41° E 05:29:10 10° S visible
05 Dec 8.0 06:56:03 10° NNW 06:58:09 16° WNW 07:00:15 10° WSW visible
05 Dec 9.1 17:28:27 10° SSW 17:31:16 24° W 17:34:07 10° NW visible
06 Dec 9.5 04:44:47 10° NE 04:46:48 15° E 04:48:48 10° SE visible
06 Dec 6.8 06:16:17 10° N 06:19:30 40° WNW 06:22:41 10° SW visible
07 Dec 6.8 05:37:13 10° NNE 05:40:36 63° E 05:43:56 10° S visible
07 Dec 8.4 07:11:32 10° NW 07:12:37 11° WNW 07:13:41 10° W visible
07 Dec 9.6 17:43:40 10° SW 17:45:57 17° W 17:48:15 10° NW visible
08 Dec 9.0 04:58:47 10° NE 05:01:27 21° E 05:04:05 10° SE visible
08 Dec 7.3 06:31:02 10° N 06:33:58 27° WNW 06:36:52 10° SW visible
08 Dec 7.6 17:03:26 10° S 17:06:44 47° W 17:10:04 10° NNW visible
09 Dec 6.2 05:51:40 10° NNE 05:55:04 83° WNW 05:58:26 10° SSW visible
09 Dec 9.9 17:59:14 10° WSW 18:00:31 12° W 18:01:49 10° WNW visible
10 Dec 8.3 05:12:53 10° NNE 05:15:57 30° E 05:18:56 10° SSE visible
10 Dec 7.7 06:45:46 10° NNW 06:48:16 19° WNW 06:50:45 10° WSW visible
10 Dec 8.5 17:18:05 10° SSW 17:21:09 31° W 17:24:16 10° NNW visible
11 Dec 9.9 04:35:29 10° ENE 04:36:32 11° E 04:37:35 10° ESE visible
11 Dec 6.4 06:06:03 10° N 06:09:23 54° WNW 06:12:39 10° SSW visible
12 Dec 7.4 05:26:59 10° NNE 05:30:15 45° E 05:33:28 10° S visible
12 Dec 8.1 07:00:32 10° NNW 07:02:23 14° WNW 07:04:13 10° W visible
12 Dec 9.2 17:32:45 10° SSW 17:35:28 22° W 17:38:12 10° NW visible
13 Dec 9.4 04:48:42 10° NE 04:50:52 16° E 04:53:00 10° SE visible
13 Dec 6.9 06:20:24 10° N 06:23:31 36° WNW 06:26:36 10° SW visible
13 Dec 6.9 16:52:46 10° S 16:56:09 66° W 16:59:33 10° NNW visible
